Miscellaneous Local Product
Issued by NWS Hastings, NE

Home | Current Version | Previous Version | Text Only | Print | Product List | Glossary Off
Versions: 1 2 3 4 5 6 7 8 9 10 11 12 13 14 15 16 17 18 19 20 21 22 23 24 25 26 27 28 29 30 31 32 33 34 35 36 37 38 39 40 41 42 43 44 45 46 47 48 49 50

000
AXUS43 KGID 201702
MISGRI

GID CWA HOURLY WEATHER ROUNDUP
NATIONAL WEATHER SERVICE HASTINGS NE
1200 PM CDT MON OCT 20 2014

NOTE: "FAIR" INDICATES FEW OR NO CLOUDS BELOW 12,000 FEET WITH NO
SIGNIFICANT WEATHER AND/OR OBSTRUCTIONS TO VISIBILITY.

...SOUTH CENTRAL NEBRASKA...

CITY           SKY/WX    TMP DP  RH WIND       PRES   REMARKS
GRAND ISLAND   SUNNY     65  42  43 E8        30.14F
HASTINGS       SUNNY     65  41  41 E7        30.13S
KEARNEY        SUNNY     64  45  48 E6        30.15S
ORD            SUNNY     63  42  46 E7        30.13F
YORK           SUNNY     64  41  42 E5        30.14R
AURORA         SUNNY     65  38  37 E5        30.13F HAZE
LEXINGTON      SUNNY     66  43  43 SE7       30.14S
HOLDREGE       SUNNY     64  43  46 CALM      30.14S
HEBRON         SUNNY     66  42  42 E5        30.12S

...NEBRASKA PANHANDLE...

CITY           SKY/WX    TMP DP  RH WIND       PRES   REMARKS
CHADRON        SUNNY     65  45  48 CALM      30.05F
ALLIANCE       SUNNY     70  37  29 S18       30.11F
SCOTTSBLUFF    SUNNY     63  43  48 SE7       30.11F
SIDNEY         SUNNY     68  39  34 S15       30.15F

...WESTERN AND NORTH CENTRAL NEBRASKA...

CITY           SKY/WX    TMP DP  RH WIND       PRES   REMARKS
VALENTINE      SUNNY     69  38  32 S12       30.11F
AINSWORTH      SUNNY     67  39  35 S7        30.13S
ONEILL         SUNNY     64  43  45 S5        30.14S
BROKEN BOW     SUNNY     67  44  43 VRB6      30.14S
IMPERIAL       SUNNY     67  44  43 VRB6      30.16S
NORTH PLATTE   SUNNY     65  41  41 SE6       30.15F
MCCOOK         SUNNY     63  44  50 CALM      30.15F

...EASTERN NEBRASKA...

CITY           SKY/WX    TMP DP  RH WIND       PRES   REMARKS
NORFOLK        SUNNY     65  39  38 CALM      30.12F
SO SIOUX CITY  SUNNY     65  43  44 N6        30.10F
TEKAMAH        SUNNY     68  40  35 N7        30.10S
COLUMBUS       SUNNY     64  41  42 NE3       30.14S
ALBION         SUNNY     64  41  43 CALM      30.13S
OMAHA EPPLEY   SUNNY     64  44  48 CALM      30.11R
OFFUTT AFB     SUNNY     64  48  54 VRB5      30.10S
MILLARD        SUNNY     64  44  49 CALM      30.10S
LINCOLN        SUNNY     66  44  45 VRB3      30.13S
NEBRASKA CITY  SUNNY     65  36  33 NE3       30.11R
BEATRICE       SUNNY     66  44  43 E8        30.11S
FALLS CITY     SUNNY     69  44  40 E7        30.09R

...NORTHERN KANSAS...

CITY           SKY/WX    TMP DP  RH WIND       PRES   REMARKS
GOODLAND       SUNNY     69  45  41 S10       30.18S
HILL CITY      SUNNY     70  50  49 E3        30.14S
NORTON         SUNNY     70  39  32 E5        30.13S
PHILLIPSBURG   SUNNY     72  45  37 SE5       30.13S
SMITH CENTER   SUNNY     70  43  37 CALM      30.13S
BELOIT         SUNNY     66  46  48 NE7       30.11R
HAYS           SUNNY     70  52  52 E6        30.13S
RUSSELL        SUNNY     70  51  51 NE8       30.11S
CONCORDIA      SUNNY     67  50  54 NE7       30.11S
SALINA         SUNNY     69  55  60 N5        30.11R
TOPEKA         SUNNY     68  53  58 NE5       30.08S



USA.gov is the U.S. government's official web portal to all federal, state and local government web resources and services.